Regional Weather Roundup
Issued by NWS

Home | Current Version | Previous Version | Text Only | Print | Product List | Glossary Off
Versions: 1 2 3 4 5 6 7 8 9 10 11 12 13 14 15 16 17 18 19 20 21 22 23 24 25 26 27 28 29 30 31 32 33 34 35 36 37 38 39 40 41 42 43 44 45 46 47 48 49 50

000
ASUS45 KCYS 231710
RWRWY

WYOMING REGIONAL WEATHER ROUNDUP
NATIONAL WEATHER SERVICE CHEYENNE WY
1100 AM MDT MON APR 23 2018

NOTE:  "FAIR" INDICATES FEW OR NO CLOUDS BELOW 12,000 FEET
WITH NO SIGNIFICANT WEATHER AND/OR OBSTRUCTIONS TO VISIBILITY.

WYZ001-231800-
YELLOWSTONE NATIONAL PARK

CITY           SKY/WX    TMP DP  RH WIND       PRES   REMARKS
LK YELLOWSTONE   N/A     33  29  85 CALM      30.16R
W YELLOWSTONE  NOT AVBL

$$
WYZ002>013-054>058-071-098>099-231800-
NORTHERN WYOMING

CITY           SKY/WX    TMP DP  RH WIND       PRES   REMARKS
JACKSON        FAIR      45  30  55 S14       30.14R
CODY           FLURRIES  35  32  88 NW15G21   30.22R WCI  25
GREYBULL       LGT RAIN  39  37  92 NW16G24   30.14R WCI  30
WORLAND        LGT RAIN  37  36  96 W8        30.17S FOG     WCI  31
SHERIDAN       LGT RAIN  41  36  82 NW21G30   30.19R
BUFFALO        CLOUDY    44  31  60 N30G37    30.12R
GILLETTE         N/A     54  41  61 NW13      30.06R
HULETT         FAIR      59  37  44 E13G20    30.07S
NEWCASTLE      FAIR      63  32  31 SE21G28   30.04S

$$
WYZ014>020-022>026-101>103-231800-
CENTRAL WYOMING

CITY           SKY/WX    TMP DP  RH WIND       PRES   REMARKS
BIG PINEY      FAIR      48  34  58 VRB6      30.14F
PINEDALE       FAIR      45  30  57 NW10G21   30.15S
DUBOIS         FAIR      43  36  75 NW6       30.10S
LANDER         CLOUDY    43  36  76 SE12      30.11R
RIVERTON       CLOUDY    40  36  86 N10       30.12R WCI  33
CASPER         PTSUNNY   53  38  56 N15       30.06R
DOUGLAS        PTSUNNY   56  41  57 SE16      30.02S

$$
WYZ021-027>030-104>119-231800-
SOUTHERN WYOMING

CITY           SKY/WX    TMP DP  RH WIND       PRES   REMARKS
EVANSTON       FAIR      49  36  61 W13       30.18R
KEMMERER       PTSUNNY   45  34  65 W14       30.18R
FORT BRIDGER   PTSUNNY   51  35  55 W15G23    30.20R
ROCK SPRINGS   FAIR      48  37  65 SW16      30.15F
DIXON          FAIR      60  32  34 W18       30.14R
RAWLINS          N/A    N/A N/A N/A MISG      30.11R
SARATOGA       CLOUDY    57  30  35 SW31G37   30.11R
LARAMIE        FAIR      60  28  29 SW13      30.08F
CHEYENNE       FAIR      60  37  42 S15       30.09S
TORRINGTON     FAIR      57  43  59 SE17G24   30.03F
PINE BLUFFS    FAIR      61  34  36 SE14G21   30.08F

$$



USA.gov is the U.S. government's official web portal to all federal, state and local government web resources and services.